DW2817 Weather Reports


time (UTC)temp
C
wind
direction
speed
KPH
gust
KPH
rain 1hr
cm
rain 24hr
cm
rain mn
cm
humidity
%
barometer
mb
20260503003508 6 289 1.6 6.4 0.00 0.00 0.00 68 1008.5
20260503002458 6 289 1.6 6.4 0.00 0.00 0.00 69 1008.5
20260503001429 6 51 1.6 6.4 0.00 0.00 0.00 70 1008.5
20260503000430 6 184 1.6 6.4 0.00 0.00 0.00 70 1008.6
20260502234420 7 137 1.6 4.8 0.00 0.00 0.00 70 1008.7
20260502233416 7 290 1.6 3.2 0.00 0.00 0.00 68 1008.7
20260502232415 7 246 1.6 4.8 0.00 0.00 0.00 69 1008.8
20260502231415 7 334 1.6 4.8 0.00 0.00 0.00 69 1008.7
20260502230411 7 334 0.0 3.2 0.00 0.00 0.00 69 1008.7
20260502225424 7 334 0.0 3.2 0.00 0.00 0.00 69 1008.7
20260502223425 7 7 1.6 6.4 0.00 0.00 0.00 69 1008.8
20260502222417 7 89 1.6 4.8 0.00 0.00 0.00 68 1008.7
20260502221421 8 344 1.6 6.4 0.00 0.00 0.00 67 1008.8
20260502220410 8 21 1.6 3.2 0.00 0.00 0.00 68 1008.7
20260502215405 8 21 1.6 3.2 0.00 0.00 0.00 67 1008.8
20260502214404 8 87 0.0 3.2 0.00 0.00 0.00 67 1008.9
20260502213429 8 87 1.6 4.8 0.00 0.00 0.00 68 1008.9
20260502212426 8 110 1.6 4.8 0.00 0.00 0.00 68 1008.8
20260502211437 8 338 1.6 3.2 0.00 0.00 0.00 67 1008.8
20260502210427 8 338 0.0 4.8 0.00 0.00 0.00 66 1008.8
20260502205408 8 288 1.6 4.8 0.00 0.00 0.00 67 1008.7
20260502204416 8 275 0.0 8.0 0.00 0.00 0.00 67 1008.8
20260502203406 9 220 3.2 8.0 0.00 0.00 0.00 67 1008.8
20260502202418 9 336 1.6 4.8 0.00 0.00 0.00 66 1008.8
20260502201404 9 12 1.6 4.8 0.00 0.00 0.00 66 1008.8
20260502200400 9 137 1.6 4.8 0.00 0.00 0.00 65 1008.8
20260502195355 10 286 1.6 3.2 0.00 0.00 0.00 65 1008.8
20260502194405 10 286 1.6 3.2 0.00 0.00 0.00 64 1008.7
20260502193345 10 286 1.6 4.8 0.00 0.00 0.00 63 1008.7
20260502192343 10 286 1.6 4.8 0.00 0.00 0.00 63 1008.7
20260502191342 11 286 0.0 3.2 0.00 0.00 0.00 61 1008.6
20260502190333 11 286 1.6 4.8 0.00 0.00 0.00 59 1008.7
20260502185339 11 286 1.6 6.4 0.00 0.00 0.00 59 1008.5
20260502184346 11 129 1.6 6.4 0.00 0.00 0.00 59 1008.3
20260502183301 12 80 1.6 6.4 0.00 0.00 0.00 57 1008.3
20260502182254 12 109 1.6 6.4 0.00 0.00 0.00 56 1008.2
20260502181251 12 14 1.6 4.8 0.00 0.00 0.00 54 1008.0
20260502180249 13 297 1.6 4.8 0.00 0.00 0.00 52 1008.0
20260502170211 15 284 4.8 17.7 0.00 0.00 0.00 45 1007.8
20260502164217 16 247 9.7 19.3 0.00 0.00 0.00 42 1007.8
20260502163230 17 255 8.0 22.5 0.00 0.00 0.00 41 1007.9
20260502162157 17 240 9.7 22.5 0.00 0.00 0.00 40 1008.0
20260502161156 17 236 9.7 22.5 0.00 0.00 0.00 39 1008.1
20260502160209 17 272 9.7 19.3 0.00 0.00 0.00 41 1008.1
20260502152156 18 238 11.3 20.9 0.00 0.00 0.00 39 1008.1
20260502151157 18 249 8.0 24.1 0.00 0.00 0.00 40 1008.2
20260502150155 18 244 12.9 24.1 0.00 0.00 0.00 43 1008.2
20260502130130 18 259 11.3 20.9 0.00 0.00 0.00 40 1009.1
20260502123038 18 281 11.3 19.3 0.00 0.00 0.00 45 1009.3
20260502122057 18 262 11.3 22.5 0.00 0.00 0.00 44 1009.3
20260502121109 18 161 11.3 22.5 0.00 0.00 0.00 48 1009.4
20260502115037 18 168 8.0 16.1 0.00 0.00 0.00 48 1009.4
20260502114040 19 301 4.8 12.9 0.00 0.00 0.00 42 1009.4
20260502112051 20 30 3.2 11.3 0.00 0.00 0.00 48 1009.6
20260502111120 19 128 3.2 9.7 0.00 0.00 0.00 47 1009.8
20260502110018 19 93 3.2 11.3 0.00 0.00 0.00 51 1009.8
20260502105025 18 74 3.2 9.7 0.00 0.00 0.00 52 1009.9
20260502104001 18 358 3.2 9.7 0.00 0.00 0.00 41 1009.9
20260502102957 18 153 3.2 12.9 0.00 0.00 0.00 51 1009.9
20260502101956 18 344 4.8 12.9 0.00 0.00 0.00 53 1010.3
20260502090946 17 121 3.2 9.7 0.00 0.00 0.00 57 1010.6
20260502070911 13 79 0.0 1.6 0.00 0.00 0.00 59 1011.4
20260502065910 12 79 0.0 1.6 0.00 0.00 0.00 59 1011.4
20260502064904 11 79 0.0 1.6 0.00 0.00 0.00 63 1011.6
20260502063905 10 79 0.0 1.6 0.00 0.00 0.00 68 1011.6
20260502061859 8 79 0.0 1.6 0.00 0.00 0.00 74 1011.6
20260502060859 7 79 0.0 0.0 0.00 0.00 0.00 71 1011.7
20260502055855 7 79 0.0 0.0 0.00 0.00 0.00 76 1011.7
20260502054853 7 79 0.0 0.0 0.00 0.00 0.00 76 1011.8
20260502053850 7 79 0.0 0.0 0.00 0.00 0.00 75 1011.9
20260502051858 6 79 0.0 1.6 0.00 0.00 0.00 72 1011.7
20260502050756 6 79 0.0 3.2 0.00 0.00 0.00 74 1011.9
20260502044747 5 79 1.6 3.2 0.00 0.00 0.00 75 1011.8
20260502043747 5 79 1.6 3.2 0.00 0.00 0.00 74 1011.8
20260502042806 5 79 0.0 3.2 0.00 0.00 0.00 74 1011.9
20260502035755 5 79 0.0 3.2 0.00 0.00 0.00 74 1011.9
20260502034741 5 79 0.0 3.2 0.00 0.00 0.00 74 1011.9
20260502033737 5 79 1.6 3.2 0.00 0.00 0.00 74 1011.8
20260502031736 5 79 0.0 3.2 0.00 0.00 0.00 74 1011.9
20260502030731 5 79 1.6 3.2 0.00 0.00 0.00 74 1011.9
20260502025723 5 79 0.0 3.2 0.00 0.00 0.00 74 1011.9
20260502024719 5 79 0.0 3.2 0.00 0.00 0.00 73 1011.9
20260502023725 5 79 0.0 3.2 0.00 0.00 0.00 72 1011.9
20260502022727 5 79 1.6 3.2 0.00 0.00 0.00 71 1012.0
20260502021724 5 32 0.0 3.2 0.00 0.00 0.00 72 1011.9
20260502020655 5 32 1.6 3.2 0.00 0.00 0.00 73 1011.8
20260502015647 5 32 0.0 3.2 0.00 0.00 0.00 72 1011.9
20260502013647 5 133 1.6 4.8 0.00 0.00 0.00 72 1012.1
20260502011635 5 14 0.0 3.2 0.00 0.00 0.00 73 1012.1
20260502010631 5 14 0.0 3.2 0.00 0.00 0.00 73 1012.2
20260502005618 6 14 0.0 1.6 0.00 0.00 0.00 73 1012.2